Stations météo

Publicité
Cambridge (NIAB), Grande-Bretagne (99123): Température de l'air & dewpoint: 13.09.2020 09:00:00 - 19.09.2020 09:00:00 (BST)Cambridge (NIAB), Grande-Bretagne (99123): Quantités de précipitations: 13.09.2020 09:00:00 - 19.09.2020 09:00:00 (BST)
Date & Time tt [°C] td [°C] rr [mm]
19.09.2020 09:00:00 14,1 11,8 0,0
19.09.2020 08:00:00 11,7 10,5 0,0
19.09.2020 07:00:00 10,5 9,7 0,0
19.09.2020 06:00:00 10,8 9,9 0,0
19.09.2020 05:00:00 11,5 10,7 0,0
19.09.2020 04:00:00 11,5 10,7 0,0
19.09.2020 03:00:00 10,2 9,1 0,0
19.09.2020 02:00:00 11,7 10,5 0,0
19.09.2020 01:00:00 11,2 9,5 0,0
19.09.2020 00:00:00 11,2 9,3 0,0
18.09.2020 23:00:00 12,2 9,6 0,0
18.09.2020 22:00:00 12,7 9,5 0,0
18.09.2020 21:00:00 13,6 9,4 0,0
18.09.2020 20:00:00 14,7 9,4 0,0
18.09.2020 19:00:00 16,4 8,9 0,0
18.09.2020 18:00:00 18,0 8,2 0,0
18.09.2020 17:00:00 19,2 7,6 0,0
18.09.2020 16:00:00 20,0 6,7 0,0
18.09.2020 15:00:00 20,1 7,3 0,0
18.09.2020 14:00:00 20,0 7,2 0,0
18.09.2020 13:00:00 20,0 8,0 0,0
18.09.2020 12:00:00 19,1 9,0 0,0
18.09.2020 11:00:00 17,6 8,7 0,0
18.09.2020 10:00:00 15,6 9,7 0,0
18.09.2020 09:00:00 13,5 9,7 0,0
18.09.2020 08:00:00 10,8 8,5 0,0
18.09.2020 07:00:00 9,1 7,7 0,0
18.09.2020 06:00:00 8,9 7,6 0,0
18.09.2020 05:00:00 8,9 7,7 0,0
18.09.2020 04:00:00 8,8 7,3 0,0
18.09.2020 03:00:00 9,3 7,7 0,0
18.09.2020 02:00:00 9,6 7,9 0,0
18.09.2020 01:00:00 8,9 7,4 0,0
18.09.2020 00:00:00 10,3 8,0 0,0
17.09.2020 23:00:00 10,4 7,6 0,0
17.09.2020 22:00:00 12,2 8,4 0,0
17.09.2020 21:00:00 13,5 8,4 0,0
17.09.2020 20:00:00 14,7 8,0 0,0
17.09.2020 19:00:00 16,5 7,1 0,0
17.09.2020 18:00:00 18,6 6,2 0,0
17.09.2020 17:00:00 19,6 6,5 0,0
17.09.2020 16:00:00 20,3 6,6 0,0
17.09.2020 15:00:00 20,5 7,8 0,0
17.09.2020 14:00:00 20,3 9,1 0,0
17.09.2020 13:00:00 20,1 10,6 0,0
17.09.2020 12:00:00 18,4 10,2 0,0
17.09.2020 11:00:00 17,0 10,4 0,0
17.09.2020 10:00:00 15,2 10,4 0,0
17.09.2020 09:00:00 13,0 10,0 0,0
17.09.2020 08:00:00 11,3 9,2 0,0
17.09.2020 07:00:00 10,4 8,8 0,0
17.09.2020 06:00:00 10,6 9,0 0,0
17.09.2020 05:00:00 11,1 9,3 0,0
17.09.2020 04:00:00 11,9 9,8 0,0
17.09.2020 03:00:00 12,4 9,9 0,0
17.09.2020 02:00:00 13,8 10,1 0,0
17.09.2020 01:00:00 14,3 10,2 0,0
17.09.2020 00:00:00 14,7 11,0 0,0
16.09.2020 23:00:00 14,8 11,1 0,0
16.09.2020 22:00:00 15,2 11,6 0,0
16.09.2020 21:00:00 15,7 12,7 0,0
16.09.2020 20:00:00 16,2 13,3 0,0
16.09.2020 19:00:00 16,7 13,8 0,0
16.09.2020 18:00:00 18,0 13,7 0,0
16.09.2020 17:00:00 19,3 13,9 0,0
16.09.2020 16:00:00 20,3 14,8 0,0
16.09.2020 15:00:00 21,0 14,7 0,0
16.09.2020 14:00:00 21,8 15,6 0,0
16.09.2020 13:00:00 21,1 15,4 0,0
16.09.2020 12:00:00 21,9 16,0 0,0
16.09.2020 11:00:00 20,5 14,3 0,0
16.09.2020 10:00:00 19,8 15,4 0,0
16.09.2020 09:00:00 19,5 16,0 0,0
16.09.2020 08:00:00 16,4 14,7 0,0
16.09.2020 07:00:00 15,8 14,5 0,0
16.09.2020 06:00:00 16,1 14,9 0,0
16.09.2020 05:00:00 15,7 14,6 0,0
16.09.2020 04:00:00 16,3 15,0 0,0
16.09.2020 03:00:00 16,9 15,1 0,0
16.09.2020 02:00:00 17,1 14,8 0,0
16.09.2020 01:00:00 17,1 14,6 0,0
16.09.2020 00:00:00 18,0 14,4 0,0
15.09.2020 23:00:00 18,5 14,3 0,0
15.09.2020 22:00:00 20,3 14,1 0,0
15.09.2020 21:00:00 20,9 15,3 0,0
15.09.2020 20:00:00 21,9 15,8 0,0
15.09.2020 19:00:00 24,0 15,8 0,0
15.09.2020 18:00:00 27,9 15,9 0,0
15.09.2020 17:00:00 28,9 15,7 0,0
15.09.2020 16:00:00 29,0 15,3 0,0
15.09.2020 15:00:00 29,5 16,1 0,0
15.09.2020 14:00:00 28,5 15,0 0,0
15.09.2020 13:00:00 27,0 15,5 0,0
15.09.2020 12:00:00 25,3 15,3 0,0
15.09.2020 11:00:00 23,0 14,6 0,0
15.09.2020 10:00:00 19,0 14,8 0,0
15.09.2020 09:00:00 15,4 13,6 0,0
15.09.2020 08:00:00 12,2 11,5 0,0
15.09.2020 07:00:00 11,4 11,0 0,0
15.09.2020 06:00:00 10,7 9,6 0,0
15.09.2020 05:00:00 10,8 9,9 0,0
15.09.2020 04:00:00 10,4 9,2 0,0
15.09.2020 03:00:00 12,1 10,8 0,0
15.09.2020 02:00:00 13,1 12,3 0,0
15.09.2020 01:00:00 12,0 9,0 0,0
15.09.2020 00:00:00 13,4 11,2 0,0
14.09.2020 23:00:00 15,0 11,0 0,0
14.09.2020 22:00:00 18,0 12,2 0,0
14.09.2020 21:00:00 18,3 10,3 0,0
14.09.2020 20:00:00 21,6 10,9 0,0
14.09.2020 19:00:00 23,9 10,3 0,0
14.09.2020 18:00:00 26,2 9,7 0,0
14.09.2020 17:00:00 26,9 10,2 0,0
14.09.2020 16:00:00 26,9 9,7 0,0
14.09.2020 15:00:00 27,3 11,7 0,0
14.09.2020 14:00:00 25,9 12,5 0,0
14.09.2020 13:00:00 25,6 13,2 0,0
14.09.2020 12:00:00 23,9 13,2 0,0
14.09.2020 11:00:00 21,6 12,5 0,0
14.09.2020 10:00:00 18,4 12,9 0,0
14.09.2020 09:00:00 14,9 13,3 0,0
14.09.2020 08:00:00 11,9 11,9 0,0
14.09.2020 07:00:00 10,3 10,1 0,0
14.09.2020 06:00:00 10,5 10,4 0,0
14.09.2020 05:00:00 10,7 10,5 0,0
14.09.2020 04:00:00 11,1 10,6 0,0
14.09.2020 03:00:00 12,2 11,3 0,0
14.09.2020 02:00:00 13,4 12,1 0,0
14.09.2020 01:00:00 13,6 11,7 0,0
14.09.2020 00:00:00 13,8 12,1 0,0
13.09.2020 23:00:00 13,8 11,7 0,0
13.09.2020 22:00:00 14,7 11,2 0,0
13.09.2020 21:00:00 16,9 11,9 0,0
13.09.2020 20:00:00 17,9 12,1 0,0
13.09.2020 19:00:00 21,9 12,2 0,0
13.09.2020 18:00:00 23,9 12,5 0,0
13.09.2020 17:00:00 24,5 12,2 0,0
13.09.2020 16:00:00 24,5 12,5 0,0
13.09.2020 15:00:00 24,3 13,2 0,0
13.09.2020 14:00:00 23,3 13,1 0,0
13.09.2020 13:00:00 22,2 13,1 0,0
13.09.2020 12:00:00 20,7 12,8 0,0
13.09.2020 11:00:00 19,1 12,6 0,0
13.09.2020 10:00:00 17,5 12,4 0,0
13.09.2020 09:00:00 15,6 11,6 0,0

tt = Température de l'air
td = dewpoint
rr = Quantités de précipitations

stations d'obs. à proximité